Location: Davayat
(45.9471°N, 3.1105°E)
Time: 17:49:14
(UTC+00:00)

Cosmos 1867 - Pass Details

Date: 01 December 2020
Orbit: 776 x 800 km, 65.0° (Epoch: 18 January)

Event Time Altitude Azimuth Distance (km) Brightness Sun altitude
Rises 16:30:16 0° 218° (SW) 3,266 8.1 -4.8°
Reaches altitude 10° 16:32:40 10° 220° (SW) 2,345 7.3 -5.2°
Maximum altitude 16:38:05 78° 306° (NW) 814 3.7 -6.0°
Drops below altitude 10° 16:43:33 10° 34° (NE) 2,375 5.5 -6.9°
Enters shadow 16:44:55 - 35° (NE) 2,891 6.0 -7.1°
